This is the latest recevied weather packets stored in our database for station/object OE6ACM-10. If no packets are shown the sender has not sent any weather packets the latest 10 day(s).
| Time | Temp. | Humidity | Pressure | Rain* | Wind** | Luminosity | Snow |
|---|---|---|---|---|---|---|---|
| 1777641282 | 41.11° C | 27% | 934 hPa | - | - | - | - |
| 1777640982 | 40.56° C | 29% | 934.1 hPa | - | - | - | - |
| 1777640682 | 40.56° C | 27% | 934.2 hPa | - | - | - | - |
| 1777640382 | 40.56° C | 29% | 934.2 hPa | - | - | - | - |
| 1777640082 | 39.44° C | 29% | 934.3 hPa | - | - | - | - |
| 1777639782 | 40° C | 28% | 934.3 hPa | - | - | - | - |
| 1777639482 | 40° C | 33% | 934.4 hPa | - | - | - | - |
| 1777639182 | 37.78° C | 33% | 934.5 hPa | - | - | - | - |
| 1777638882 | 37.78° C | 32% | 934.5 hPa | - | - | - | - |
| 1777638582 | 36.67° C | 33% | 934.6 hPa | - | - | - | - |
| 1777638282 | 36.11° C | 34% | 934.6 hPa | - | - | - | - |
| 1777637982 | 35.56° C | 35% | 934.7 hPa | - | - | - | - |
| 1777637682 | 35° C | 38% | 934.7 hPa | - | - | - | - |
| 1777637382 | 33.89° C | 38% | 934.8 hPa | - | - | - | - |
| 1777637082 | 33.33° C | 44% | 934.8 hPa | - | - | - | - |
| 1777636782 | 31.67° C | 44% | 934.9 hPa | - | - | - | - |
| 1777636482 | 31.11° C | 50% | 934.9 hPa | - | - | - | - |
| 1777636182 | 30° C | 53% | 935 hPa | - | - | - | - |
| 1777635882 | 28.33° C | 57% | 935 hPa | - | - | - | - |
| 1777635582 | 28.33° C | 55% | 934.9 hPa | - | - | - | - |
| 1777635282 | 27.78° C | 56% | 935.1 hPa | - | - | - | - |
| 1777634982 | 27.22° C | 52% | 935.1 hPa | - | - | - | - |
| 1777634682 | 27.22° C | 56% | 935.2 hPa | - | - | - | - |
| 1777634382 | 26.67° C | 58% | 935.2 hPa | - | - | - | - |
| 1777634082 | 27.22° C | 53% | 935.3 hPa | - | - | - | - |
* Rain since midnight (hover to see other rain measurements)
** Current wind speed in m/s (hover to see current wind gust speed)